Temperature
15 15 15 15 13 12 14 15 17 18 19 20 21 20 18 18 19 18 17 18 18 18 18 18 17 17 17 17 17 17 17 17 17 17 17 17 17 17 17 17 17 16 16 16 16 16 16 16 16
14 15 15 15 12 13 14 15 17 18 19 20 20 20 19 18 18 18 17 18 18 18 18 18 17 17 17 17 17 17 17 17 17 17 17 17 17 16 17 17 16 16 16 16 16 16 16 16 15
14 14 15 12 13 13 15 17 17 18 20 20 20 20 19 18 18 18 18 18 18 18 18 18 17 17 17 17 17 17 17 17 17 17 17 17 16 16 16 16 16 16 16 16 16 16 16 15 15
14 14 14 12 13 14 16 17 17 18 20 20 19 18 18 18 18 18 17 18 18 17 17 17 17 17 17 17 17 17 17 17 16 16 16 16 16 16 16 16 16 16 16 16 16 16 15 15 15
14 14 12 12 13 14 15 16 18 17 18 19 19 17 17 17 17 17 17 17 17 17 17 17 17 17 17 17 16 16 16 16 16 16 16 16 16 16 16 16 16 16 16 15 15 15 15 15 15
14 12 11 12 13 15 15 17 17 16 17 18 18 16 16 17 17 17 17 17 17 17 17 17 17 17 17 16 16 16 16 16 16 16 16 16 16 16 16 16 16 15 15 15 15 15 15 15 15
13 11 12 13 14 15 16 17 16 16 16 17 17 16 16 16 17 17 17 17 17 17 17 16 16 16 16 16 16 16 16 16 16 16 16 16 16 16 15 15 15 15 15 15 15 15 15 15 14
13 11 13 13 14 15 15 16 16 16 16 17 17 15 15 16 16 16 16 16 16 16 16 16 16 16 16 16 16 16 15 15 15 15 15 15 15 15 15 15 15 15 15 15 15 14 14 14 14
13 11 11 13 14 14 15 15 15 16 16 16 16 16 16 16 16 16 16 16 16 16 16 16 16 15 15 15 15 15 15 15 15 15 15 15 15 15 15 15 15 15 14 14 14 14 14 14 14
12 10 12 13 14 14 14 14 14 15 14 15 16 16 16 16 16 16 15 15 15 15 15 15 15 15 15 15 15 15 15 15 14 14 14 14 14 14 14 14 14 14 14 14 14 14 14 14 14
11 10 12 13 13 14 13 13 14 14 13 14 15 15 15 15 15 15 15 15 15 15 15 15 15 15 14 14 14 14 14 14 14 14 14 14 14 14 14 14 14 14 14 14 14 14 14 14 14
11 11 12 13 13 13 13 13 13 13 14 15 15 15 15 15 15 15 14 14 14 14 14 14 14 14 14 14 14 14 14 14 14 14 14 14 14 14 14 14 14 13 13 13 13 13 13 13 13
11 11 12 12 13 13 13 12 12 13 14 14 14 14 14 14 14 14 14 14 14 14 14 14 13 14 13 13 13 13 13 13 13 13 13 13 13 13 13 13 13 13 13 13 13 13 13 13 13
11 11 11 12 12 12 12 11 11 13 14 14 14 14 14 14 14 14 14 14 13 13 13 13 13 13 13 13 13 13 13 13 13 13 13 13 13 13 13 13 13 13 13 13 13 13 13 13 13
11 10 10 11 11 11 11 11 10 13 13 13 13 13 14 14 14 13 13 13 13 13 13 13 13 13 13 13 13 13 13 13 13 13 13 13 13 12 12 12 12 12 12 12 12 12 12 12 12
10 10 9 10 11 11 11 10 11 13 13 13 13 13 13 13 13 13 13 13 13 13 12 12 12 12 12 12 12 12 12 12 12 12 12 12 12 12 12 12 12 12 12 12 12 12 12 12 12
9 8 9 10 11 10 10 10 11 13 12 12 13 13 13 13 13 13 13 12 12 12 12 12 12 12 12 12 12 12 12 12 12 12 12 12 12 12 12 12 12 11 11 11 11 11 11 11 11
8 8 9 10 11 10 9 9 10 12 12 12 12 12 12 12 12 12 12 12 12 12 12 12 11 11 11 11 11 11 11 11 11 11 11 11 11 11 11 11 11 11 11 11 10 10 10 10 11
9 9 9 9 10 10 9 9 10 11 10 10 11 12 12 12 12 12 12 12 11 11 11 11 11 11 11 10 10 11 11 11 11 11 11 11 11 11 11 11 11 11 10 10 10 10 10 10 10
9 9 9 9 10 10 9 9 9 10 10 11 11 11 12 12 11 11 11 11 11 11 11 11 10 10 10 10 10 10 10 10 10 10 10 10 10 10 10 10 10 10 10 10 10 9 9 9 9
8 8 8 9 9 9 9 8 9 10 10 11 11 11 12 11 11 11 11 11 11 10 10 10 10 10 10 10 10 10 10 10 10 10 10 10 10 10 10 10 10 10 9 9 9 9 9 9 9
8 9 9 9 8 7 8 7 8 9 9 9 9 10 11 11 11 11 11 10 10 10 10 10 10 9 9 9 9 9 9 9 9 9 9 9 9 9 9 9 9 9 9 9 9 9 8 8 8
8 9 8 8 7 6 6 6 7 8 8 9 8 9 10 11 10 10 10 10 10 10 9 9 9 9 9 9 9 9 9 9 8 8 8 9 9 9 9 9 9 8 8 9 8 8 8 8 8
8 8 7 5 5 6 6 6 7 7 9 9 8 9 10 10 10 10 10 10 10 9 9 9 9 9 9 9 8 8 8 8 8 8 8 8 8 8 8 8 8 8 8 8 8 8 8 8 8
7 6 6 6 5 6 7 6 7 8 9 9 8 9 9 9 9 9 9 9 9 9 9 9 8 8 8 8 8 8 8 7 7 7 7 7 7 7 8 8 8 8 8 8 8 8 7 7 7
6 6 6 7 6 6 6 6 7 8 9 9 9 9 9 9 9 9 9 9 9 8 8 8 8 8 8 8 8 7 7 7 7 7 7 7 7 7 7 7 7 7 7 7 7 7 7 7 7
6 6 6 5 5 5 6 6 7 8 8 8 8 8 8 9 9 9 8 8 8 8 8 8 8 7 7 7 7 7 7 7 6 6 6 6 6 6 6 6 7 7 7 7 7 7 7 6 6
7 6 5 5 5 6 6 6 7 8 7 7 6 7 8 8 8 8 8 8 8 8 7 7 7 7 7 7 7 7 6 6 6 6 6 6 6 6 6 6 6 6 6 6 6 6 6 6 6
6 6 5 4 4 5 5 6 7 7 7 7 7 8 8 8 8 8 8 8 8 7 7 7 7 7 6 6 6 6 6 6 6 6 6 6 6 6 6 5 5 5 6 6 6 6 6 6 6
6 6 5 5 4 3 4 6 8 6 7 7 7 8 8 8 8 8 8 7 7 7 7 7 6 6 6 6 6 6 6 6 6 6 6 5 5 5 5 5 5 5 5 5 5 5 5 5 5
Wind_Speed
7 6 2 4 5 3 3 5 4 2 1 1 2 6 7 5 4 5 3 1 5 6 6 8 9 9 8 8 8 9 9 9 10 10 9 9 9 9 9 10 10 10 11 11 12 12 12 12 13
4 3 4 4 4 2 4 5 4 4 3 1 2 5 6 4 3 6 1 1 6 7 6 7 8 8 8 8 8 9 9 9 9 9 9 9 9 9 9 9 9 9 10 10 11 12 12 12 12
3 1 4 4 4 6 5 4 4 3 1 1 3 4 5 5 4 4 2 4 7 5 6 7 8 8 7 7 7 8 8 8 8 8 8 8 8 9 9 9 9 9 10 10 11 12 11 12 12
3 3 4 2 5 5 5 4 1 0 2 3 3 5 3 1 3 4 3 6 7 4 5 6 7 7 7 6 6 7 8 8 8 8 8 7 7 8 8 9 9 9 9 10 10 11 12 11 12
3 4 3 2 5 5 5 6 3 0 1 2 3 4 2 3 3 5 6 7 7 4 3 5 6 6 5 5 6 7 7 7 7 7 7 7 7 7 8 8 9 9 10 10 10 11 12 12 12
3 3 3 4 5 4 4 4 1 0 1 2 3 3 1 2 3 3 5 5 6 5 3 4 5 5 5 4 4 5 6 6 7 7 7 7 7 7 7 7 8 9 9 10 10 11 12 12 11
4 4 4 5 4 4 3 2 2 1 1 1 2 4 2 2 0 3 4 5 5 5 4 3 3 3 3 4 3 4 5 6 6 6 6 6 7 7 7 7 7 8 8 9 10 11 11 12 11
4 3 3 3 4 4 3 2 2 1 2 2 2 6 4 4 1 4 5 5 4 3 3 2 2 1 1 2 2 3 3 4 5 6 6 6 6 6 7 7 7 7 8 8 9 10 11 12 11
3 2 4 4 4 3 2 3 4 2 1 2 1 3 4 2 2 5 4 4 2 2 1 1 1 1 0 1 2 3 4 4 4 5 6 6 4 5 5 6 6 7 7 8 8 9 10 10 10
4 4 7 3 2 1 2 2 3 3 3 2 2 1 1 2 3 3 1 0 0 1 1 1 1 1 0 0 1 1 2 2 3 3 4 4 4 4 4 6 6 6 7 7 8 8 9 8 7
5 6 4 3 2 1 1 3 2 1 5 6 5 3 1 0 1 1 2 2 3 3 2 2 2 1 1 0 0 0 0 1 1 2 3 3 3 3 3 4 4 5 5 4 5 5 5 6 6
4 5 5 3 2 2 3 3 3 6 8 6 6 4 3 3 4 4 4 3 2 2 2 2 2 2 1 1 1 1 0 0 0 1 3 2 1 1 1 2 3 3 4 3 3 3 4 5 6
5 4 4 4 4 5 5 6 6 9 9 6 5 5 6 6 6 5 4 4 2 2 2 3 2 2 2 2 1 1 1 1 1 1 2 3 3 3 2 2 2 3 3 3 3 3 4 4 5
4 4 5 6 6 4 6 7 5 11 7 6 6 7 7 7 7 5 4 4 4 3 3 2 2 2 2 2 2 2 2 1 1 1 2 3 3 3 3 3 3 3 3 4 4 4 4 4 4
1 3 7 6 6 5 3 9 10 11 5 6 8 8 8 7 6 6 6 5 5 4 3 2 2 2 2 2 3 2 2 1 1 2 2 3 3 3 4 4 3 3 4 4 3 3 3 3 4
1 1 5 5 5 5 5 11 8 6 6 8 9 8 8 8 7 7 6 5 4 4 2 2 2 2 2 2 3 2 2 2 2 1 2 3 3 4 4 4 4 4 3 3 3 3 3 4 4
1 4 6 5 5 5 6 10 8 5 6 9 9 8 8 7 6 6 5 5 4 4 3 2 1 2 2 2 2 2 2 2 2 2 2 3 3 3 3 4 4 4 4 4 4 3 3 3 4
7 6 6 6 4 4 8 12 12 7 8 10 9 8 8 8 8 6 5 4 3 3 3 2 2 2 2 1 1 1 2 2 2 2 2 3 3 4 3 4 5 4 4 4 4 4 3 4 4
5 5 6 7 4 4 10 15 15 11 9 10 9 8 8 8 7 5 4 4 2 2 2 2 2 2 1 1 1 2 3 3 3 3 3 4 4 4 4 4 4 5 5 6 5 4 4 4 2
7 7 7 6 4 5 8 14 13 10 9 10 10 9 9 6 4 3 3 3 3 2 1 2 2 3 3 3 3 2 3 3 4 3 4 4 4 5 5 5 5 5 5 5 6 5 4 3 3
9 10 8 7 6 4 6 10 8 6 5 6 7 8 7 8 7 5 3 3 2 2 3 3 3 3 3 3 2 1 1 1 2 3 3 4 5 5 5 6 6 5 6 6 6 7 6 5 4
8 7 8 6 3 5 1 6 8 6 6 6 6 6 7 6 5 4 3 3 3 3 3 3 3 4 4 3 3 3 3 4 5 4 4 5 5 5 5 6 6 6 5 6 7 7 6 6 5
7 4 4 4 4 5 4 5 9 4 6 8 7 7 6 6 6 5 4 4 3 3 3 3 3 4 4 4 4 4 5 5 4 4 5 5 5 5 6 6 6 6 6 7 7 7 7 7 7
4 2 2 2 2 6 7 7 8 5 7 6 5 5 6 6 5 4 2 2 1 1 2 3 3 4 4 4 5 5 6 5 5 5 5 5 4 4 5 6 6 7 6 7 7 7 8 8 8
4 4 0 2 2 7 5 6 9 8 7 7 7 7 5 6 5 4 2 1 2 2 3 3 3 4 4 5 5 6 6 6 7 6 6 5 4 5 6 6 6 7 7 7 7 7 8 8 8
9 9 7 6 6 5 3 7 8 7 5 4 5 6 6 5 4 4 4 3 2 3 2 2 3 4 5 5 5 5 5 5 5 6 6 6 6 6 7 7 7 8 8 8 7 7 8 7 8
7 8 6 4 1 3 6 6 7 2 0 2 4 5 5 5 4 4 3 3 2 2 2 2 3 4 4 4 4 5 5 4 5 5 5 5 6 6 7 8 8 8 8 9 8 7 8 8 8
6 7 5 5 5 5 5 5 5 5 5 3 4 5 4 3 3 3 3 2 2 2 3 2 2 3 4 4 4 4 5 5 5 5 6 6 7 6 6 7 8 8 9 9 9 8 8 9 9
7 6 5 5 4 5 5 6 6 8 7 7 6 6 5 4 3 3 2 2 2 2 2 2 3 4 5 5 5 5 5 5 5 6 7 6 6 7 7 8 8 8 8 9 9 9 9 10 9
7 8 8 6 6 5 4 7 5 5 5 6 5 4 3 3 3 2 2 2 2 2 3 3 4 4 5 5 5 5 5 5 5 6 6 6 6 6 7 7 8 8 8 8 9 9 9 10 10
Wind_Direction
343 347 63 57 64 61 242 248 232 279 294 252 112 108 111 101 116 149 215 228 135 142 150 147 149 148 147 146 143 142 141 141 143 142 143 144 147 148 149 151 151 151 152 151 148 146 144 141 138
352 5 59 64 102 159 251 244 225 234 220 196 64 91 88 85 101 121 135 134 127 133 138 145 148 150 148 148 147 148 147 148 150 151 149 152 155 157 159 162 162 159 158 157 155 155 153 150 145
343 64 88 93 154 193 214 221 198 215 259 108 60 62 97 125 131 143 185 136 119 119 132 143 145 147 149 149 153 154 152 153 156 158 158 160 164 165 167 168 166 164 163 163 162 163 161 156 153
54 61 68 107 224 233 218 232 248 343 18 40 86 61 48 24 151 160 131 112 116 119 124 146 141 140 148 152 157 159 159 161 162 162 164 168 171 171 171 170 169 168 167 169 169 169 168 163 160
68 87 103 225 238 249 246 260 252 200 109 17 83 90 54 345 80 111 110 109 116 115 111 132 140 139 141 151 159 163 163 163 165 167 168 173 175 171 172 177 179 178 176 178 178 178 175 173 169
67 87 136 219 238 255 274 282 256 140 98 29 85 106 174 308 60 87 102 106 117 128 111 117 133 138 141 143 155 167 171 171 170 171 173 174 176 176 174 179 183 184 184 185 183 183 181 179 176
120 131 187 212 234 255 273 316 109 123 65 282 138 125 196 291 307 82 84 89 94 106 102 88 111 134 152 154 153 170 181 183 179 176 176 175 179 182 181 183 186 189 188 190 190 189 189 187 184
142 130 212 224 219 238 304 5 50 65 233 277 117 142 195 236 259 60 59 67 74 84 103 100 70 91 149 178 177 175 183 190 187 185 175 174 179 183 184 185 188 192 194 196 196 196 194 192 190
109 115 217 223 205 228 345 17 337 318 45 350 51 170 196 196 68 55 43 33 46 53 69 108 86 39 31 190 203 197 188 191 191 191 184 176 179 181 184 188 189 195 196 199 202 199 196 192 191
122 192 222 226 194 207 345 1 320 348 338 312 342 351 104 97 84 83 83 126 186 238 245 178 164 177 60 199 183 183 191 190 184 181 184 184 179 176 180 186 189 194 199 203 206 205 199 190 188
172 204 225 252 243 193 310 309 294 224 255 227 218 223 227 8 32 158 198 211 226 226 226 220 195 182 165 203 71 76 150 167 179 178 179 175 169 172 173 172 187 196 195 193 203 200 195 186 185
202 238 225 242 256 254 252 267 272 224 232 229 217 214 232 235 235 227 216 222 234 242 240 225 205 195 200 167 173 148 116 127 145 197 178 160 164 176 180 177 181 183 185 186 189 195 196 196 199
229 257 260 253 260 248 247 245 251 252 246 246 247 247 242 240 237 229 211 209 205 225 247 235 213 203 207 194 210 196 199 195 193 183 178 169 180 196 201 195 189 193 190 189 199 207 216 213 210
223 253 277 265 256 244 243 261 244 255 240 238 240 243 244 237 228 223 217 212 206 210 233 236 223 215 197 201 209 212 216 201 211 206 201 185 177 188 196 201 201 201 200 199 202 212 217 220 213
264 304 301 260 227 230 226 273 237 246 236 241 243 243 244 241 229 220 219 214 207 211 214 223 209 200 191 213 224 227 230 208 210 233 211 200 190 187 194 199 202 209 206 206 209 215 214 226 221
11 292 280 268 201 197 179 261 256 237 221 238 242 243 242 245 234 227 221 215 206 198 201 233 230 203 211 219 231 232 226 212 214 229 223 210 204 195 195 203 208 211 201 201 210 214 223 230 228
229 234 246 275 213 188 200 251 265 245 223 241 245 242 238 243 246 234 215 199 189 185 185 218 251 226 226 223 226 232 223 216 220 215 225 222 210 202 200 211 215 205 200 205 215 218 217 231 242
208 218 240 248 239 203 236 257 270 267 242 245 248 245 236 229 234 225 203 189 181 182 183 198 249 243 236 239 238 251 244 237 226 224 228 231 225 212 207 221 221 206 202 209 214 218 223 223 232
196 211 245 255 259 248 250 263 270 266 252 250 246 239 225 228 231 213 193 176 159 168 178 210 237 248 231 231 238 239 245 242 236 236 238 232 231 220 210 222 222 210 207 208 210 210 220 227 220
232 248 257 275 277 260 270 273 270 260 245 235 230 223 218 222 220 207 188 173 175 187 207 230 233 233 227 221 220 223 231 241 236 241 241 237 230 226 222 211 219 221 215 212 208 203 210 221 200
233 230 237 253 305 303 301 294 276 269 251 243 229 215 206 201 201 200 183 178 178 202 226 241 248 241 236 225 213 243 262 288 263 254 244 240 234 232 229 219 216 223 218 218 215 206 206 223 223
237 230 224 239 274 281 264 288 279 268 280 257 239 218 206 200 189 182 180 190 201 222 231 242 255 247 235 217 207 218 232 245 249 246 248 248 240 236 234 226 219 222 225 225 220 215 211 209 227
213 212 215 225 218 275 246 240 278 277 258 252 236 221 205 189 176 179 190 201 214 223 223 242 259 257 242 225 216 220 237 240 251 251 250 251 245 238 236 231 226 224 227 229 224 217 213 213 219
172 89 36 41 133 255 221 204 273 238 227 235 225 212 196 181 178 185 200 194 225 255 244 252 258 266 261 246 233 223 234 241 247 250 247 250 251 243 237 234 231 230 228 231 228 222 218 220 223
156 130 340 291 252 244 210 208 252 246 238 216 205 198 189 177 174 180 180 204 238 257 260 260 259 276 277 264 248 239 238 236 236 241 241 245 248 247 241 237 232 233 234 233 227 224 224 222 221
192 174 183 208 224 261 237 227 253 261 256 212 182 169 166 171 178 187 196 208 234 253 269 267 267 281 284 273 264 255 246 238 239 239 239 240 243 246 245 238 236 236 236 241 229 228 229 230 226
173 200 180 152 195 256 255 272 294 272 357 140 144 146 169 178 183 190 201 211 232 249 267 265 268 287 291 286 272 261 250 244 246 244 242 245 246 248 248 245 242 238 236 235 230 233 230 230 231
177 159 143 171 192 238 263 251 235 227 212 190 180 186 192 187 191 195 204 216 231 243 270 289 282 284 290 292 285 272 259 250 247 244 243 244 246 244 249 251 247 242 238 238 232 236 235 230 232
170 177 175 171 184 191 237 258 227 209 200 191 199 196 192 198 202 210 224 234 248 276 292 302 306 304 299 291 286 276 263 256 253 249 247 244 244 244 245 249 246 246 244 241 237 236 234 233 235
195 189 171 184 218 201 205 263 275 216 200 184 189 198 203 205 203 210 229 251 275 287 296 294 298 301 294 287 281 273 269 262 256 256 249 243 244 246 247 250 248 248 249 245 241 241 237 235 237
Height
1502 1503 1504 1506 1509 1516 1516 1507 1498 1493 1491 1489 1489 1489 1491 1495 1498 1505 1503 1501 1501 1501 1502 1502 1503 1503 1504 1505 1506 1507 1508 1509 1510 1511 1511 1512 1513 1514 1515 1515 1516 1517 1517 1518 1518 1519 1520 1521 1521
1502 1503 1505 1506 1513 1520 1514 1502 1496 1491 1489 1489 1489 1489 1491 1495 1496 1499 1500 1500 1501 1501 1501 1502 1502 1503 1504 1505 1506 1507 1508 1509 1509 1510 1511 1512 1512 1513 1514 1515 1515 1516 1517 1517 1518 1519 1520 1520 1521
1501 1503 1505 1507 1513 1515 1506 1495 1492 1489 1489 1488 1489 1490 1492 1495 1497 1498 1499 1500 1501 1501 1501 1502 1502 1503 1504 1505 1505 1506 1507 1508 1508 1509 1510 1511 1512 1513 1513 1514 1515 1515 1516 1517 1518 1518 1519 1520 1520
1502 1504 1505 1510 1509 1504 1497 1492 1490 1489 1488 1488 1489 1492 1494 1496 1497 1498 1499 1499 1500 1500 1501 1501 1502 1502 1503 1504 1504 1505 1506 1507 1507 1508 1509 1510 1510 1511 1512 1513 1514 1514 1515 1516 1517 1517 1518 1519 1519
1501 1502 1507 1510 1506 1499 1493 1490 1489 1489 1489 1489 1490 1492 1495 1497 1497 1498 1498 1499 1499 1499 1500 1500 1501 1501 1502 1502 1503 1504 1504 1505 1506 1507 1508 1508 1509 1510 1511 1512 1512 1513 1514 1515 1516 1516 1517 1518 1519
1501 1502 1511 1511 1503 1496 1491 1489 1489 1489 1489 1490 1490 1492 1494 1496 1496 1497 1497 1498 1498 1498 1499 1499 1500 1500 1501 1501 1502 1502 1503 1503 1504 1505 1506 1507 1508 1508 1509 1510 1511 1512 1513 1513 1514 1515 1516 1517 1517
1501 1504 1506 1504 1500 1495 1491 1489 1489 1489 1489 1490 1490 1492 1493 1495 1496 1496 1496 1496 1497 1497 1497 1498 1498 1499 1499 1500 1500 1500 1501 1502 1502 1503 1504 1505 1506 1507 1507 1508 1509 1510 1511 1512 1512 1513 1514 1515 1516
1498 1502 1502 1501 1498 1494 1491 1489 1490 1489 1489 1490 1490 1491 1492 1493 1494 1494 1495 1495 1495 1495 1496 1496 1496 1497 1497 1498 1498 1498 1499 1500 1500 1501 1502 1503 1503 1504 1505 1506 1507 1508 1509 1509 1510 1511 1512 1513 1513
1498 1504 1503 1498 1495 1492 1490 1490 1489 1489 1489 1489 1489 1490 1490 1492 1492 1493 1493 1493 1493 1493 1494 1494 1494 1495 1495 1495 1496 1496 1497 1497 1498 1499 1499 1500 1501 1502 1503 1504 1504 1505 1506 1507 1508 1509 1510 1510 1511
1496 1502 1497 1492 1491 1490 1490 1490 1489 1488 1488 1487 1487 1488 1489 1489 1490 1490 1490 1490 1491 1491 1491 1491 1492 1492 1492 1493 1493 1494 1494 1495 1495 1496 1497 1498 1498 1499 1500 1501 1502 1503 1504 1504 1505 1506 1507 1508 1509
1494 1495 1492 1490 1489 1489 1489 1489 1489 1488 1488 1485 1485 1486 1487 1487 1487 1487 1488 1488 1488 1488 1488 1488 1489 1489 1489 1490 1490 1491 1491 1492 1493 1493 1494 1495 1496 1496 1497 1498 1499 1500 1501 1501 1502 1503 1504 1505 1506
1492 1490 1489 1489 1488 1488 1488 1488 1487 1485 1484 1483 1484 1484 1484 1484 1485 1485 1485 1485 1485 1485 1485 1485 1486 1486 1486 1487 1487 1488 1488 1489 1489 1490 1491 1492 1492 1493 1494 1494 1495 1496 1497 1498 1499 1500 1501 1502 1503
1490 1488 1487 1487 1487 1486 1486 1485 1485 1481 1480 1481 1481 1481 1481 1481 1481 1482 1482 1482 1482 1482 1482 1482 1483 1483 1483 1483 1484 1484 1485 1485 1486 1487 1488 1488 1489 1490 1490 1491 1492 1493 1494 1495 1496 1496 1497 1498 1499
1487 1487 1486 1485 1484 1484 1484 1482 1482 1475 1477 1477 1477 1477 1477 1477 1478 1478 1478 1478 1478 1478 1479 1479 1479 1479 1480 1480 1480 1481 1481 1482 1483 1483 1484 1485 1486 1486 1487 1487 1488 1489 1490 1491 1492 1493 1494 1495 1496
1486 1487 1485 1481 1481 1481 1482 1480 1475 1471 1474 1474 1474 1473 1473 1474 1474 1474 1474 1474 1475 1475 1475 1475 1476 1476 1476 1476 1477 1477 1477 1478 1479 1480 1480 1481 1482 1483 1483 1484 1484 1485 1486 1488 1489 1489 1490 1491 1491
1486 1488 1488 1480 1478 1478 1484 1479 1469 1469 1470 1469 1470 1470 1470 1470 1470 1470 1470 1470 1471 1471 1471 1471 1472 1472 1472 1472 1473 1473 1473 1474 1475 1475 1476 1477 1478 1479 1479 1480 1480 1481 1482 1483 1484 1485 1485 1486 1487
1489 1491 1487 1481 1476 1477 1479 1475 1466 1466 1467 1466 1465 1465 1465 1465 1466 1466 1467 1467 1467 1467 1467 1467 1468 1468 1468 1468 1468 1469 1469 1469 1470 1471 1472 1472 1473 1474 1475 1476 1476 1477 1478 1479 1480 1481 1481 1482 1482
1488 1488 1484 1481 1475 1476 1476 1471 1464 1463 1463 1462 1461 1461 1461 1461 1461 1462 1463 1463 1463 1463 1464 1464 1464 1464 1464 1464 1464 1464 1464 1465 1466 1466 1467 1468 1469 1469 1470 1471 1472 1472 1473 1474 1475 1476 1477 1477 1478
1479 1481 1481 1478 1473 1474 1472 1467 1461 1458 1458 1457 1456 1456 1456 1457 1458 1459 1459 1459 1460 1460 1460 1460 1460 1460 1460 1459 1459 1459 1459 1460 1460 1461 1462 1463 1464 1464 1465 1466 1467 1467 1468 1468 1470 1471 1472 1473 1474
1478 1480 1480 1476 1472 1472 1470 1464 1457 1452 1451 1449 1449 1450 1451 1452 1453 1455 1455 1456 1456 1456 1456 1456 1456 1455 1455 1455 1455 1455 1455 1455 1456 1457 1457 1458 1459 1459 1460 1461 1461 1462 1463 1463 1464 1466 1467 1468 1470
1476 1478 1477 1476 1473 1471 1471 1463 1454 1448 1445 1444 1444 1445 1446 1448 1449 1450 1451 1452 1452 1452 1452 1452 1452 1452 1451 1451 1451 1451 1451 1451 1451 1451 1452 1453 1453 1454 1455 1455 1456 1457 1457 1458 1459 1460 1461 1462 1464
1474 1471 1472 1473 1477 1478 1475 1475 1456 1448 1445 1442 1441 1441 1442 1444 1446 1447 1447 1448 1449 1449 1449 1449 1448 1448 1447 1447 1447 1446 1446 1445 1445 1446 1447 1448 1448 1448 1449 1450 1450 1451 1452 1453 1454 1455 1456 1457 1458
1469 1468 1471 1472 1476 1480 1476 1477 1458 1448 1445 1440 1438 1438 1439 1441 1442 1444 1445 1445 1446 1445 1445 1445 1445 1444 1444 1443 1442 1442 1441 1441 1441 1441 1442 1442 1442 1443 1444 1444 1445 1446 1446 1447 1448 1449 1450 1451 1452
1465 1470 1473 1477 1480 1480 1471 1475 1458 1448 1440 1436 1435 1436 1436 1438 1440 1442 1443 1443 1443 1443 1442 1442 1441 1440 1440 1439 1438 1437 1437 1436 1436 1436 1436 1436 1436 1437 1438 1438 1439 1440 1441 1441 1442 1442 1443 1445 1446
1465 1473 1480 1479 1484 1475 1464 1466 1452 1438 1433 1432 1432 1433 1434 1436 1438 1439 1440 1440 1440 1439 1439 1438 1438 1436 1435 1434 1433 1432 1432 1431 1431 1430 1430 1430 1430 1430 1431 1432 1433 1433 1434 1435 1436 1437 1437 1438 1439
1461 1466 1473 1474 1475 1470 1462 1460 1444 1433 1430 1429 1429 1431 1433 1435 1436 1437 1437 1438 1437 1436 1435 1435 1434 1432 1431 1430 1429 1428 1427 1427 1426 1426 1425 1425 1425 1425 1425 1426 1427 1427 1428 1429 1430 1430 1431 1432 1432
1458 1462 1462 1472 1474 1473 1462 1453 1441 1430 1430 1429 1430 1430 1432 1433 1434 1435 1436 1436 1435 1434 1433 1432 1430 1429 1427 1426 1424 1423 1422 1422 1421 1420 1420 1420 1419 1419 1420 1420 1420 1421 1421 1423 1423 1423 1424 1424 1425
1451 1455 1464 1468 1470 1467 1459 1453 1443 1433 1431 1430 1430 1430 1430 1432 1433 1433 1434 1434 1433 1432 1430 1429 1428 1426 1424 1422 1421 1419 1418 1417 1416 1415 1414 1414 1413 1413 1413 1413 1414 1414 1415 1416 1416 1416 1417 1417 1418
1451 1453 1455 1462 1465 1465 1460 1448 1430 1428 1427 1428 1428 1428 1429 1430 1431 1431 1431 1431 1431 1430 1428 1426 1424 1423 1421 1419 1417 1415 1414 1413 1411 1410 1409 1408 1407 1407 1407 1407 1408 1407 1407 1409 1409 1409 1409 1410 1410
1444 1445 1451 1458 1461 1462 1462 1446 1424 1424 1424 1425 1426 1427 1428 1429 1429 1429 1429 1429 1428 1427 1425 1424 1421 1419 1417 1415 1413 1411 1410 1408 1406 1405 1404 1403 1402 1402 1402 1402 1401 1401 1401 1402 1402 1401 1402 1402 1402